Location: Buena Vista Wine Cellars
(38.2994°N, 122.4222°W)
Time: 15:08:44
(UTC+00:00)

Daily predictions for brighter satellites

Satellite Brightness Start Highest point End
(mag) Time Altitude Azimuth Time Altitude Azimuth Time Altitude Azimuth
Okean 3 4.3 12:01:19 10° NNW 12:05:01 31° W 12:08:43 10° SSW
SL-8 R/B 3.8 12:04:53 11° WSW 12:09:36 80° NNW 12:14:24 10° NE
ADEOS II 4.1 12:08:17 10° NNW 12:10:41 13° WNW 12:13:04 10° W
Cosmos 1464 Rocket 4.4 12:05:29 10° S 12:11:47 69° E 12:18:08 10° NNE
Cosmos 1356 3.5 12:12:43 10° SSW 12:16:06 63° W 12:19:31 10° N
Cosmos 1536 3.9 12:14:13 10° SW 12:17:46 29° WNW 12:21:20 10° NNW
Cosmos 2369 4.1 12:12:35 10° NNW 12:18:20 73° ENE 12:24:02 10° SSE
Cosmos 1975 4.0 12:17:43 10° SSE 12:21:33 45° E 12:25:22 10° NNE
CZ-4C R/B 4.1 12:19:19 10° SSW 12:22:07 24° W 12:24:52 10° NW
Meteor 1-23 Rocket 4.3 12:17:06 10° NNW 12:22:45 68° W 12:28:27 10° S
deb Kosmos-1763 4.0 12:20:21 10° SSW 12:23:55 90° E 12:27:31 10° NNE
Cosmos 1656 3.9 12:20:26 10° NW 12:25:36 46° WSW 12:30:46 10° S
